Temperature
21 20 20 20 19 19 21 22 22 22 21 21 21 21 20 19 19 19 18 18 18 18 18 18 18 18 18 19 19 19 19 19 19 19 19 19 19 19 19 19 19 19 18 18 18 18 18 18 18
21 20 20 20 19 20 21 22 22 22 22 22 21 20 19 18 18 18 18 18 18 18 18 18 18 19 19 19 19 19 19 19 19 19 19 19 19 19 19 19 18 18 18 18 18 18 18 18 18
21 20 20 19 20 20 22 22 22 22 22 22 21 20 19 18 18 18 19 18 18 18 18 18 19 19 19 19 19 19 19 19 19 19 19 19 19 19 19 19 18 18 18 18 18 18 18 18 18
21 20 20 20 21 22 22 22 22 22 22 21 20 19 18 18 19 19 19 19 19 18 18 18 19 19 19 19 19 19 19 19 19 19 19 19 19 19 19 19 18 18 18 18 18 18 18 18 18
21 21 20 20 22 22 23 23 23 22 22 21 20 19 18 18 19 19 19 19 19 18 18 19 19 19 19 19 19 19 19 19 19 19 19 19 19 19 19 18 18 18 18 18 18 18 18 18 18
22 20 20 21 22 23 23 23 23 22 21 20 20 18 18 18 19 19 19 19 19 19 18 18 19 19 19 19 19 19 19 19 19 19 19 19 19 18 18 18 18 18 18 18 18 18 18 18 18
21 20 21 22 22 23 23 23 22 21 21 21 20 18 17 18 19 19 18 18 18 18 18 18 18 18 19 19 19 19 19 19 19 18 18 18 18 18 18 18 18 18 18 18 18 18 18 18 18
22 20 22 22 23 23 23 23 23 22 21 21 20 18 18 18 18 18 18 18 18 18 18 18 18 19 18 18 19 19 18 18 18 18 18 18 18 18 18 18 18 18 18 18 18 18 18 18 18
23 20 22 23 23 23 23 23 23 22 21 21 20 20 20 19 18 18 18 18 18 18 18 18 18 18 18 18 18 18 18 18 18 18 18 18 18 18 18 18 18 18 18 18 18 18 18 18 18
22 21 23 24 24 23 24 23 23 22 21 20 20 19 19 19 18 18 18 18 18 18 18 18 18 18 18 18 18 18 18 18 18 18 18 18 18 18 18 18 18 18 18 18 18 18 18 18 18
22 22 23 24 25 25 24 23 23 22 20 20 20 19 19 18 18 18 18 19 19 19 18 19 19 19 18 18 18 18 18 18 18 18 18 18 18 18 18 18 18 18 18 18 18 18 18 18 18
23 23 24 25 25 25 24 23 23 22 22 22 22 21 19 18 18 19 19 19 19 19 19 19 19 19 19 19 18 18 18 18 18 18 18 18 18 18 18 18 18 18 18 18 18 18 18 18 18
24 24 25 25 25 25 24 23 23 22 22 22 21 20 19 19 19 19 19 19 19 19 19 19 19 19 19 19 18 18 18 18 18 18 18 18 18 18 18 18 18 18 18 18 18 18 18 18 18
25 24 25 25 25 24 23 23 22 21 22 21 20 19 19 19 19 19 19 19 19 19 19 19 19 19 19 19 18 18 18 18 18 18 18 18 18 18 18 18 18 18 18 18 18 18 18 18 18
25 24 24 24 25 24 24 23 22 21 21 20 19 19 19 19 19 19 19 19 19 19 19 19 19 19 19 19 19 18 18 18 18 18 18 18 18 18 18 18 18 18 18 18 18 18 18 18 18
24 24 24 25 24 24 24 22 22 21 20 19 19 19 19 19 19 20 20 20 20 20 19 19 19 19 19 19 19 19 19 18 18 18 18 18 18 18 18 18 18 18 18 18 18 18 18 18 18
23 23 24 24 25 24 23 23 22 21 20 19 19 19 19 19 19 20 20 20 20 20 20 19 19 19 19 19 19 19 18 18 19 18 18 18 18 18 18 18 18 18 18 18 18 18 18 18 18
24 24 24 24 24 24 23 22 21 20 20 20 19 19 19 19 20 20 20 20 20 20 20 20 19 19 19 19 19 19 18 18 19 18 18 18 18 18 18 18 18 18 18 18 18 18 18 18 18
24 24 23 24 24 23 23 22 21 20 20 20 20 19 20 20 20 20 20 20 20 20 20 20 20 19 19 19 19 19 19 19 19 19 18 18 18 18 18 18 18 18 18 18 18 18 18 18 18
24 24 23 24 24 24 23 22 21 20 20 20 20 20 20 20 20 20 20 20 20 20 20 20 20 19 19 19 19 19 19 19 19 19 18 18 19 19 18 18 18 18 18 18 18 18 18 18 18
24 24 24 24 23 23 23 22 22 21 21 21 21 21 20 20 20 21 20 20 20 20 20 20 20 20 19 19 19 19 18 18 18 19 19 19 19 19 18 18 18 18 18 18 18 18 18 18 18
24 24 24 24 22 21 23 21 22 21 20 20 21 21 21 21 21 21 21 21 21 21 20 20 20 20 19 19 19 19 19 19 19 19 19 19 18 18 18 18 18 18 18 18 18 18 18 18 17
24 24 23 23 22 21 21 21 21 20 20 20 21 21 21 22 22 22 22 22 21 21 21 20 20 20 20 19 19 19 19 19 19 19 19 19 19 19 18 18 18 18 18 18 18 18 18 18 18
24 22 21 19 19 21 21 21 21 20 20 21 21 21 22 22 22 22 22 22 22 21 21 20 20 20 20 20 19 19 19 19 19 19 19 19 19 19 18 18 18 18 18 18 18 18 18 18 18
23 21 20 21 19 20 20 20 20 21 21 21 21 22 22 22 22 22 22 22 22 21 21 21 20 20 20 20 19 19 19 19 19 19 19 19 19 19 18 18 18 18 18 18 18 18 18 17 17
22 21 20 21 20 20 20 20 21 21 21 22 22 22 22 22 22 23 23 23 22 22 22 21 21 21 20 20 20 19 19 19 19 19 19 19 19 19 18 18 18 18 18 18 18 18 18 17 17
22 20 20 19 19 20 19 20 21 21 21 21 21 21 22 22 23 23 23 23 23 22 22 22 21 21 21 20 20 20 19 19 19 19 19 19 19 19 18 18 18 18 18 18 18 18 18 18 17
22 19 17 18 19 20 21 20 20 21 21 20 20 20 21 23 23 23 23 23 23 22 22 22 21 21 21 20 20 20 20 19 19 19 19 19 19 19 18 18 18 18 18 18 18 18 18 17 17
22 20 17 16 17 18 20 20 21 20 20 20 20 21 21 22 23 23 23 23 23 22 22 22 21 21 21 20 20 20 20 20 19 19 19 19 19 19 18 18 18 18 18 18 18 18 17 17 17
22 20 18 19 18 16 18 20 21 20 20 20 20 21 21 22 22 22 22 22 22 22 22 22 21 21 21 21 20 20 20 20 20 20 19 19 19 18 18 18 18 18 18 18 18 18 17 17 17
Wind_Speed
7 5 2 0 3 5 3 3 2 3 3 3 5 6 7 4 2 3 2 5 7 7 10 14 16 16 17 18 19 20 20 20 20 20 19 18 18 17 15 15 14 14 13 13 13 13 13 13 13
5 4 1 2 5 4 3 3 3 2 5 5 6 6 6 4 4 5 4 5 8 8 10 14 16 16 16 17 18 20 20 19 19 19 18 17 16 15 14 13 13 12 13 12 12 12 12 12 12
5 3 1 3 4 3 1 0 4 5 5 3 4 5 4 3 4 3 4 8 8 8 11 15 17 16 17 17 18 19 19 18 18 18 17 16 15 14 13 12 12 11 11 11 11 11 11 10 10
3 1 2 4 3 1 3 2 5 6 4 6 5 5 4 3 3 5 9 10 10 7 11 14 16 16 17 17 17 17 18 17 17 16 15 14 14 13 12 11 11 10 10 10 10 10 9 9 9
1 2 5 4 3 2 2 3 3 4 3 5 5 5 4 4 8 11 10 10 10 7 9 13 15 16 16 16 17 17 17 16 15 15 14 13 12 12 11 10 10 9 8 8 8 8 8 8 7
3 4 5 2 3 2 2 2 3 6 5 5 5 4 3 4 9 9 9 8 7 8 8 11 14 14 14 15 16 16 16 15 14 13 13 12 11 10 9 9 9 8 7 6 6 6 6 6 6
3 4 3 2 1 1 1 2 3 5 5 4 4 5 3 4 7 9 8 8 7 7 7 7 9 11 13 14 14 14 14 14 13 12 12 11 10 9 8 8 7 7 6 5 4 5 5 5 4
3 3 2 1 2 1 2 3 3 5 4 5 4 6 6 7 9 10 9 7 6 5 5 5 7 8 8 10 13 13 13 12 12 11 10 10 8 7 6 6 5 5 4 3 3 3 3 3 2
3 4 1 3 4 3 4 3 2 4 6 3 3 4 7 15 13 11 9 6 5 5 4 4 5 6 7 7 10 11 11 11 9 8 8 7 5 4 4 4 4 4 3 2 2 2 2 2 2
4 2 4 4 5 4 5 4 5 4 4 3 6 8 14 15 14 12 11 9 8 6 4 3 4 5 6 6 6 6 6 6 5 5 5 5 4 3 2 2 2 2 1 1 1 1 2 2 2
3 4 3 1 3 5 5 5 4 7 3 5 10 15 17 15 13 12 11 9 8 7 5 4 4 5 5 4 5 4 4 4 4 4 4 4 3 2 1 0 0 1 1 2 2 2 2 2 1
2 3 2 1 3 4 5 5 4 4 4 7 14 18 17 16 14 12 12 10 7 6 6 5 5 4 4 5 4 4 3 3 2 3 4 4 2 1 1 0 0 1 1 1 1 1 2 2 2
2 2 1 2 4 4 5 4 4 2 6 13 16 16 15 14 11 9 9 8 7 7 6 6 5 5 4 4 3 4 4 3 4 4 3 4 3 1 1 1 0 0 1 0 1 1 2 2 2
2 1 2 3 3 3 5 3 3 3 11 15 15 14 13 13 11 9 9 9 9 8 7 6 6 5 5 4 3 3 4 4 3 3 4 4 4 3 2 1 1 1 2 2 1 1 1 2 2
2 4 5 3 2 2 6 2 2 7 12 13 13 13 12 11 10 10 11 10 10 9 8 7 7 6 5 5 4 4 4 4 3 3 4 4 5 4 3 2 2 2 2 2 1 1 1 1 1
4 5 3 2 2 3 5 3 3 11 13 12 12 12 11 10 11 10 10 9 9 8 8 8 8 7 6 5 4 4 4 4 4 4 4 5 5 6 4 3 2 3 2 2 1 0 0 1 1
5 2 1 3 1 2 4 4 4 11 12 12 12 12 11 10 9 9 9 10 9 9 9 8 7 8 7 6 4 3 3 3 4 4 5 5 6 6 5 4 3 3 2 1 1 1 1 1 1
2 1 2 3 2 3 3 3 5 10 11 11 11 10 10 11 12 10 10 10 9 8 8 8 7 7 6 5 3 2 1 2 3 4 5 5 5 6 5 3 3 3 2 1 1 1 1 1 1
4 3 3 5 2 3 3 2 5 9 9 9 9 10 10 11 9 9 9 10 9 8 8 8 8 7 6 4 3 3 3 2 2 4 5 6 6 6 5 3 3 3 3 3 2 1 1 1 0
3 1 3 3 1 2 1 2 3 9 12 11 11 11 11 10 8 9 10 10 10 10 10 9 9 8 7 6 4 3 3 2 2 2 3 5 5 6 5 5 4 3 3 2 2 2 1 1 1
1 4 4 2 3 4 3 4 2 4 7 7 8 9 10 12 11 11 11 12 11 11 12 11 10 9 8 6 4 2 2 1 0 1 2 3 4 5 5 5 4 4 4 3 3 3 3 2 1
3 5 4 2 3 2 2 2 6 4 5 9 10 11 12 12 11 11 11 11 12 12 10 9 9 9 8 7 7 7 5 5 4 3 2 2 4 5 5 5 5 4 3 3 3 3 3 2 2
4 1 3 2 4 2 2 2 7 1 5 10 12 13 13 13 13 12 13 13 12 11 10 9 8 9 8 8 8 7 6 5 3 2 3 3 3 4 5 6 5 5 4 4 4 3 3 3 3
4 6 7 6 5 1 3 3 6 4 7 7 10 12 12 12 12 11 11 10 10 10 10 9 9 9 8 9 8 8 8 6 4 4 4 3 3 3 4 5 5 5 5 5 5 4 4 4 3
5 6 4 5 4 5 3 3 8 7 6 7 8 9 9 9 10 10 11 12 12 12 12 11 11 10 9 9 9 9 8 8 7 6 6 5 3 3 5 4 5 5 5 5 5 4 4 4 4
4 8 8 5 5 5 2 5 7 6 5 4 4 4 5 6 8 10 12 13 13 13 13 12 12 11 10 10 9 8 7 6 6 6 5 5 5 5 5 5 5 5 5 5 4 4 4 4 4
6 4 6 7 3 1 5 7 8 3 4 2 0 2 4 5 7 9 10 11 11 12 13 13 13 12 11 11 9 8 8 7 7 6 6 5 4 5 5 5 5 5 5 5 5 4 5 4 4
5 8 6 6 5 3 5 5 5 7 6 3 1 3 4 4 5 6 8 9 10 11 11 11 12 12 11 11 10 10 9 8 7 6 6 6 5 5 4 4 5 5 5 5 5 4 4 4 4
4 5 6 5 5 6 4 7 5 8 6 4 4 4 4 4 5 5 5 7 8 8 9 10 10 10 10 11 10 9 8 8 7 7 7 6 5 5 4 4 4 4 4 5 5 5 4 4 4
4 6 7 5 4 4 4 7 5 5 4 3 3 3 2 2 2 2 2 3 5 7 8 9 10 10 10 10 9 9 8 8 9 9 8 7 6 6 5 5 4 5 4 4 6 6 6 6 6
Wind_Direction
169 156 151 130 54 48 24 359 65 77 62 56 79 85 92 78 91 135 135 137 130 135 136 134 132 128 125 123 123 124 124 123 122 122 121 120 119 118 115 113 112 109 105 103 103 102 102 101 102
154 162 189 50 70 58 352 355 76 89 131 127 81 74 74 62 65 104 127 136 131 133 133 137 136 131 128 126 125 126 125 125 124 123 122 122 121 120 118 116 115 111 107 105 104 102 102 102 101
170 199 70 62 73 129 178 12 108 102 105 85 73 61 70 84 106 122 139 133 123 125 132 140 136 133 130 129 128 128 127 126 126 125 125 124 124 124 122 119 116 113 109 106 104 102 103 103 103
163 81 51 61 56 220 178 159 125 117 74 55 86 71 62 70 118 128 128 127 122 122 132 137 135 133 132 131 131 130 129 127 126 126 126 127 128 127 125 122 119 115 111 108 105 103 102 102 103
102 81 56 45 15 0 102 133 119 98 77 71 80 82 52 30 103 119 124 126 126 122 128 137 136 134 134 134 135 133 131 129 128 129 129 129 129 128 127 124 121 117 113 110 109 105 105 105 104
57 65 72 56 12 20 72 75 84 87 90 91 87 88 59 104 119 129 124 121 122 123 125 136 139 138 138 139 138 137 135 133 132 132 131 130 129 129 128 125 122 120 117 114 111 109 106 104 101
90 79 95 124 105 56 145 91 104 110 102 109 111 97 99 127 129 129 120 113 110 113 118 127 136 140 140 141 142 140 139 137 136 136 135 134 134 134 134 130 128 127 126 123 117 111 106 102 97
129 93 67 123 149 190 144 106 104 111 107 115 113 132 156 158 133 121 112 108 110 107 108 115 123 130 137 144 147 147 145 144 143 142 141 140 138 137 137 134 136 137 137 135 125 116 102 93 86
114 68 151 201 173 180 145 123 101 86 107 105 94 126 142 138 132 125 122 119 127 126 110 112 120 130 137 143 154 153 150 150 149 147 144 138 129 128 133 143 150 152 155 151 146 125 91 68 54
93 118 231 212 175 160 150 140 141 118 108 91 79 94 124 139 142 144 149 152 153 156 150 129 128 132 138 145 137 139 141 143 144 141 135 128 128 130 143 169 184 175 172 137 147 82 49 42 36
147 193 239 250 170 144 142 141 137 131 167 180 152 142 143 148 153 158 162 164 168 168 165 154 144 140 139 130 125 134 136 135 140 149 152 145 133 119 108 84 12 24 56 46 40 36 32 24 11
172 257 217 168 123 138 150 143 125 156 199 154 148 148 151 158 164 168 170 172 166 165 172 162 154 145 148 142 136 145 149 152 160 172 173 161 157 145 147 168 12 32 48 39 13 4 350 340 321
199 283 65 122 112 117 115 118 126 125 107 124 135 145 157 164 169 172 170 166 164 174 181 172 160 159 156 147 154 156 168 178 180 178 187 182 180 180 180 208 197 214 221 241 295 312 325 327 324
201 79 49 63 90 113 116 94 102 132 128 133 145 156 166 170 171 169 170 173 178 182 184 176 171 169 163 167 171 172 177 181 177 183 196 197 194 191 188 199 210 228 226 228 238 265 288 299 303
76 57 34 33 71 115 110 70 181 148 141 146 157 164 172 178 178 182 183 182 185 186 182 181 182 173 171 180 188 191 186 177 177 196 203 202 201 198 190 191 215 231 220 215 238 278 283 279 289
44 53 36 312 101 128 124 224 190 151 152 159 168 174 179 186 190 191 188 186 185 182 182 189 189 178 179 184 191 194 189 181 196 203 202 205 205 201 190 196 222 228 219 206 199 228 303 291 290
33 55 287 294 193 140 156 223 180 164 164 170 178 184 187 189 196 195 193 190 185 185 183 185 187 181 183 182 186 191 187 192 208 207 205 210 210 205 196 204 220 210 198 200 229 205 199 254 286
228 220 249 247 242 148 183 229 170 177 178 181 186 189 193 199 202 196 193 190 185 183 182 185 186 183 174 167 165 167 183 212 215 213 214 212 211 208 198 205 215 199 190 214 211 215 218 227 247
178 179 247 255 222 160 208 229 184 179 187 191 194 196 200 209 202 191 190 189 182 182 182 186 184 183 169 165 172 178 203 215 220 223 223 219 215 210 200 207 204 197 204 218 212 198 214 236 182
164 187 267 304 20 142 203 262 206 191 201 202 200 201 205 208 197 194 191 188 188 191 192 190 190 184 183 185 175 174 176 200 211 224 224 221 216 213 210 202 205 202 204 211 204 186 185 241 140
187 194 227 232 14 37 60 337 262 220 212 214 213 207 208 209 205 199 195 194 191 195 197 199 194 190 190 181 155 140 104 60 172 224 230 227 218 215 212 206 204 202 197 210 213 192 188 210 220
247 224 194 162 97 325 73 281 288 240 225 222 220 213 213 212 206 201 198 197 199 201 197 194 192 192 190 178 175 180 190 205 215 212 219 230 221 218 213 208 204 203 201 210 218 197 191 183 218
211 91 108 106 125 65 21 154 288 265 241 237 227 220 218 211 204 200 200 201 200 198 194 195 190 193 190 186 188 189 202 210 207 199 214 231 231 224 217 209 202 205 207 213 216 203 199 194 200
139 67 55 52 70 33 253 170 279 246 230 243 228 222 218 209 205 201 198 195 195 192 192 190 189 197 193 191 193 195 199 201 202 211 218 231 235 234 227 215 209 209 208 213 214 211 210 210 209
94 90 36 6 12 255 265 190 250 259 243 234 232 220 214 203 197 193 191 193 196 194 194 191 192 200 197 196 201 204 204 201 206 211 215 221 227 231 232 221 214 214 214 214 207 204 216 214 214
167 142 157 191 220 271 308 230 254 277 284 259 229 203 193 193 197 199 199 199 199 197 194 192 195 201 199 199 203 203 201 206 212 212 212 216 223 229 226 216 216 216 213 213 200 208 215 210 218
135 157 160 138 150 261 282 285 302 304 335 344 181 168 187 199 202 207 204 198 196 196 195 195 195 200 201 201 199 201 203 207 211 209 210 216 223 228 219 214 215 213 208 205 198 213 220 213 218
132 139 100 119 149 231 283 280 263 283 288 301 277 214 214 206 204 207 203 197 196 195 195 195 197 199 199 198 203 209 208 207 206 204 211 215 220 223 214 216 218 217 213 208 202 215 220 215 226
109 97 105 114 149 162 233 267 235 233 243 232 238 229 214 210 212 208 204 196 187 185 187 193 199 198 198 200 203 206 206 204 202 206 216 217 215 211 212 214 215 217 220 214 209 219 216 219 232
152 153 144 151 208 177 184 259 285 246 250 228 231 237 219 211 210 208 191 169 172 181 188 193 198 202 203 200 199 205 204 201 206 213 216 210 209 210 210 210 214 222 224 216 216 223 221 220 228
Height
1492 1492 1493 1495 1497 1505 1507 1501 1496 1497 1498 1499 1498 1499 1501 1505 1509 1514 1511 1511 1513 1514 1516 1518 1520 1523 1525 1527 1529 1531 1533 1535 1537 1539 1541 1543 1544 1546 1548 1549 1550 1551 1552 1553 1554 1555 1556 1557 1558
1492 1493 1495 1496 1503 1517 1512 1500 1498 1497 1498 1499 1500 1502 1503 1506 1507 1509 1509 1512 1514 1515 1517 1519 1522 1525 1527 1529 1531 1533 1535 1538 1540 1542 1543 1545 1547 1548 1550 1551 1553 1554 1554 1555 1556 1557 1558 1558 1559
1493 1494 1496 1498 1507 1515 1510 1500 1498 1498 1499 1500 1502 1504 1506 1508 1509 1510 1511 1513 1515 1517 1519 1521 1524 1527 1529 1531 1533 1536 1538 1540 1542 1544 1546 1548 1549 1551 1552 1553 1555 1556 1556 1557 1558 1559 1559 1560 1561
1494 1496 1497 1503 1508 1504 1501 1499 1498 1499 1500 1501 1503 1506 1509 1511 1511 1512 1513 1515 1517 1520 1522 1524 1527 1529 1531 1533 1536 1538 1540 1543 1545 1547 1548 1550 1551 1553 1554 1555 1557 1557 1558 1559 1560 1561 1561 1562 1563
1495 1497 1502 1509 1507 1501 1498 1498 1499 1499 1501 1503 1504 1508 1511 1512 1513 1514 1516 1518 1520 1522 1525 1527 1529 1531 1534 1536 1538 1540 1542 1545 1547 1549 1550 1552 1553 1555 1556 1557 1558 1559 1560 1561 1562 1562 1563 1564 1564
1496 1497 1510 1515 1508 1501 1500 1500 1500 1501 1503 1505 1506 1509 1512 1514 1514 1516 1518 1520 1523 1525 1527 1530 1532 1534 1536 1538 1540 1542 1544 1547 1549 1551 1552 1554 1555 1557 1558 1559 1560 1561 1562 1562 1563 1564 1564 1565 1566
1498 1502 1509 1509 1508 1505 1502 1501 1502 1502 1504 1506 1507 1510 1513 1515 1516 1518 1520 1523 1526 1528 1530 1532 1534 1536 1538 1540 1542 1544 1546 1548 1550 1552 1554 1555 1557 1558 1559 1560 1561 1562 1563 1564 1565 1565 1566 1567 1568
1498 1502 1507 1508 1508 1506 1501 1502 1503 1504 1505 1507 1508 1510 1513 1515 1517 1520 1522 1525 1528 1530 1532 1534 1536 1538 1540 1542 1544 1546 1548 1550 1552 1554 1555 1557 1558 1560 1561 1562 1563 1564 1564 1565 1566 1566 1567 1568 1569
1498 1506 1511 1506 1505 1503 1501 1502 1504 1505 1506 1508 1509 1510 1512 1515 1518 1521 1524 1527 1529 1532 1534 1536 1538 1540 1542 1543 1545 1547 1549 1551 1553 1555 1557 1558 1560 1561 1562 1563 1564 1565 1566 1566 1567 1567 1568 1569 1570
1499 1509 1504 1498 1497 1498 1500 1502 1504 1506 1507 1509 1510 1511 1514 1516 1519 1522 1524 1527 1529 1532 1535 1537 1539 1541 1543 1545 1546 1549 1550 1553 1555 1557 1558 1560 1561 1562 1563 1564 1565 1566 1567 1567 1568 1568 1569 1570 1570
1498 1502 1497 1495 1495 1497 1500 1502 1503 1505 1508 1508 1508 1511 1514 1517 1521 1523 1526 1528 1531 1534 1536 1538 1541 1542 1544 1546 1548 1550 1552 1554 1556 1558 1560 1561 1562 1563 1564 1565 1566 1567 1567 1568 1569 1569 1570 1571 1571
1498 1497 1495 1495 1495 1497 1500 1502 1504 1505 1506 1506 1508 1511 1514 1518 1521 1524 1527 1530 1533 1535 1537 1540 1542 1544 1546 1548 1550 1551 1554 1556 1557 1559 1561 1562 1563 1564 1565 1566 1567 1567 1568 1569 1570 1570 1571 1571 1572
1497 1496 1495 1495 1496 1498 1500 1503 1504 1506 1506 1508 1510 1513 1516 1519 1522 1526 1529 1532 1534 1536 1539 1541 1543 1545 1547 1549 1551 1553 1555 1557 1558 1560 1562 1563 1564 1565 1566 1567 1567 1568 1569 1570 1570 1571 1571 1572 1572
1496 1496 1496 1497 1497 1499 1501 1504 1506 1507 1508 1509 1512 1515 1518 1520 1523 1526 1529 1532 1534 1537 1539 1542 1544 1546 1548 1550 1552 1554 1556 1557 1559 1561 1562 1564 1565 1566 1567 1567 1568 1569 1569 1570 1570 1571 1571 1571 1572
1496 1498 1499 1499 1499 1500 1503 1508 1507 1507 1509 1511 1514 1516 1519 1521 1524 1526 1529 1531 1534 1537 1540 1542 1544 1547 1549 1551 1553 1555 1557 1558 1560 1561 1563 1564 1565 1566 1567 1568 1568 1569 1569 1570 1570 1570 1571 1571 1571
1499 1505 1510 1503 1500 1501 1507 1515 1507 1507 1509 1512 1515 1517 1519 1522 1524 1527 1529 1532 1535 1537 1540 1542 1545 1547 1549 1551 1553 1555 1557 1559 1560 1562 1563 1564 1565 1566 1567 1568 1568 1569 1569 1569 1570 1570 1570 1570 1570
1509 1516 1514 1507 1501 1501 1506 1511 1506 1508 1510 1512 1514 1516 1519 1521 1524 1526 1529 1531 1534 1537 1539 1542 1544 1546 1549 1551 1553 1555 1557 1559 1560 1562 1563 1564 1565 1566 1567 1567 1568 1568 1568 1569 1569 1569 1569 1569 1569
1516 1515 1513 1511 1503 1503 1507 1508 1506 1508 1509 1511 1513 1516 1518 1520 1522 1525 1528 1531 1533 1536 1538 1541 1543 1546 1548 1551 1553 1555 1556 1558 1560 1561 1562 1563 1564 1565 1566 1567 1567 1567 1568 1568 1568 1568 1568 1567 1567
1505 1510 1513 1508 1501 1504 1507 1508 1507 1508 1510 1511 1513 1514 1516 1518 1521 1524 1526 1529 1532 1534 1536 1539 1542 1544 1547 1549 1551 1553 1555 1557 1559 1560 1561 1562 1563 1564 1565 1565 1566 1566 1567 1567 1567 1566 1566 1567 1566
1505 1511 1512 1506 1501 1504 1508 1509 1506 1506 1507 1508 1510 1511 1513 1515 1518 1521 1524 1526 1529 1531 1534 1537 1539 1542 1545 1547 1549 1552 1554 1555 1557 1558 1560 1561 1562 1563 1563 1564 1565 1565 1565 1565 1565 1565 1565 1565 1565
1505 1509 1509 1509 1506 1505 1509 1513 1509 1506 1506 1508 1508 1509 1511 1512 1514 1517 1520 1522 1525 1528 1531 1534 1537 1540 1543 1545 1548 1550 1552 1553 1555 1556 1558 1559 1560 1561 1562 1562 1563 1563 1564 1564 1564 1564 1564 1564 1564
1509 1501 1502 1506 1514 1522 1516 1531 1513 1507 1506 1505 1505 1506 1506 1509 1511 1514 1516 1519 1521 1525 1529 1532 1535 1538 1541 1543 1545 1547 1549 1550 1552 1554 1556 1557 1558 1559 1560 1560 1561 1561 1562 1562 1562 1562 1562 1562 1562
1500 1497 1502 1507 1515 1524 1522 1529 1521 1509 1508 1502 1500 1500 1502 1504 1506 1509 1512 1515 1518 1522 1526 1529 1533 1535 1538 1540 1542 1544 1546 1548 1550 1552 1553 1555 1556 1557 1558 1558 1559 1559 1559 1560 1560 1560 1560 1561 1561
1495 1502 1509 1517 1525 1536 1526 1530 1526 1512 1503 1497 1494 1495 1496 1499 1502 1506 1509 1513 1516 1519 1523 1526 1529 1532 1535 1537 1539 1541 1543 1545 1547 1549 1550 1552 1553 1554 1555 1556 1556 1557 1557 1557 1558 1558 1558 1558 1559
1498 1516 1535 1537 1546 1541 1526 1527 1521 1498 1493 1492 1491 1491 1492 1496 1499 1502 1505 1508 1511 1514 1518 1521 1524 1527 1531 1533 1536 1538 1540 1542 1544 1545 1547 1549 1550 1551 1552 1553 1554 1554 1554 1555 1555 1556 1556 1556 1556
1501 1511 1534 1544 1547 1540 1527 1528 1509 1493 1490 1488 1488 1489 1490 1493 1496 1498 1500 1503 1506 1510 1513 1517 1520 1523 1526 1529 1531 1534 1536 1538 1540 1542 1544 1545 1547 1548 1549 1550 1551 1551 1552 1552 1553 1553 1553 1554 1554
1502 1510 1511 1529 1535 1540 1533 1520 1503 1490 1489 1487 1487 1487 1488 1490 1492 1495 1497 1500 1502 1505 1508 1512 1516 1520 1522 1525 1528 1530 1532 1535 1537 1539 1541 1542 1544 1545 1546 1547 1547 1548 1549 1549 1550 1550 1551 1551 1551
1494 1504 1519 1531 1543 1545 1533 1525 1516 1498 1492 1489 1487 1487 1487 1488 1489 1492 1494 1496 1499 1502 1505 1509 1512 1516 1519 1522 1524 1526 1528 1531 1533 1535 1537 1539 1540 1542 1543 1543 1544 1545 1545 1546 1546 1547 1547 1548 1547
1499 1506 1516 1529 1531 1542 1543 1528 1497 1493 1489 1488 1486 1485 1486 1486 1488 1489 1491 1494 1496 1500 1503 1506 1509 1512 1514 1517 1520 1522 1524 1527 1529 1531 1533 1534 1536 1538 1539 1540 1541 1541 1542 1543 1543 1543 1544 1544 1545
1491 1499 1511 1522 1529 1534 1536 1522 1489 1487 1486 1486 1485 1485 1485 1486 1487 1488 1490 1492 1494 1497 1500 1503 1505 1508 1510 1513 1516 1518 1520 1522 1524 1526 1528 1530 1532 1534 1535 1536 1537 1537 1538 1539 1539 1540 1540 1540 1541